Wind_Speed
9 11 11 11 10 10 10 11 11 11 11 12 12 13 13 13 13 13 14 14 14 14 14 13 13 12 12 11 11 10 9 9 9 9 9 10 10 10 11 11 11 11 11
9 10 10 10 10 10 10 10 10 10 10 11 12 13 13 13 14 14 14 14 14 14 14 14 14 13 13 13 12 11 11 11 11 11 11 11 12 12 12 12 12 13 13
8 8 10 10 10 9 9 9 9 9 9 9 10 11 11 12 12 12 13 13 13 13 13 13 13 13 13 12 12 11 11 12 12 12 12 12 13 13 13 13 13 14 14
7 7 8 8 8 8 7 7 7 7 6 7 7 8 9 9 10 10 11 11 11 11 11 11 11 12 11 11 11 11 12 12 12 12 12 13 13 13 13 13 13 13 13
6 6 7 7 6 6 5 5 5 4 4 4 5 6 7 7 7 8 8 9 9 9 10 10 11 11 11 11 11 11 11 11 11 12 12 12 13 13 13 13 12 12 12
6 6 6 5 5 4 3 3 2 2 3 4 4 4 5 5 6 6 7 8 8 9 10 10 11 11 11 11 11 12 12 12 12 12 12 12 13 13 12 12 12 12 12
6 6 6 5 5 4 3 1 1 1 2 3 3 4 4 5 6 6 7 8 8 9 10 11 11 12 12 12 12 12 13 13 13 13 12 12 13 13 13 12 12 12 12
6 6 6 6 6 5 4 3 1 1 1 2 3 3 4 5 5 6 7 8 9 10 10 11 12 12 12 13 13 13 14 14 14 14 13 13 13 13 13 13 13 13 13
7 7 7 6 6 5 4 3 2 2 1 2 2 3 4 5 6 6 7 8 9 10 11 12 13 13 13 13 14 14 14 15 15 15 13 14 14 14 14 13 13 14 14
7 6 6 6 5 5 4 3 2 2 2 2 3 4 5 6 6 7 8 9 10 11 12 13 14 14 14 14 14 15 15 16 16 15 13 14 15 14 14 14 14 15 15
7 6 6 5 4 4 3 2 2 2 3 4 5 6 6 8 8 9 10 11 12 13 14 15 15 16 15 15 15 16 16 17 17 16 15 15 16 16 16 16 16 16 17
7 6 5 4 2 1 1 2 4 5 5 6 7 8 9 10 11 12 13 14 15 16 16 17 17 17 17 17 17 17 18 20 19 17 17 18 18 18 18 18 18 18 19
6 5 4 2 2 3 4 6 6 7 7 8 9 10 12 13 13 14 16 17 18 19 20 20 20 20 20 20 20 20 20 22 23 20 19 20 20 20 20 20 20 21 21
7 5 5 4 5 6 8 9 9 10 9 10 12 13 15 16 17 18 20 21 21 23 24 24 24 23 23 24 23 23 23 24 26 23 21 22 22 23 23 23 23 23 24
8 7 7 8 9 10 11 12 12 13 13 14 15 17 18 20 21 22 24 24 25 26 26 28 28 28 27 28 28 28 27 27 29 27 24 24 25 25 25 25 26 26 27
11 10 10 11 12 13 14 15 16 16 17 17 18 20 22 23 23 25 26 27 28 29 31 31 31 31 32 32 32 31 31 30 30 30 28 27 27 28 28 28 28 29 29
12 13 13 14 14 15 17 18 19 19 20 20 20 22 24 25 25 26 27 29 31 31 33 33 32 32 33 34 34 34 33 32 31 32 32 31 29 28 29 29 30 31 32
15 15 16 17 17 18 19 20 21 22 23 23 23 25 26 27 27 28 30 32 32 32 32 32 33 33 33 33 33 33 34 34 34 34 33 32 31 30 30 31 32 33 34
17 17 18 19 19 20 22 23 24 25 25 26 26 27 28 29 30 30 32 34 33 34 33 32 32 31 31 31 30 30 31 33 35 34 34 34 33 32 32 31 33 35 37
19 19 19 21 22 23 24 26 27 27 28 29 30 31 31 31 32 33 34 34 34 34 33 32 31 29 29 28 28 28 28 30 32 32 33 34 34 34 35 36 36 37 38
22 21 21 23 24 25 26 28 30 30 31 32 34 34 35 34 35 34 35 34 35 35 33 32 31 30 29 28 27 26 28 28 30 31 32 33 35 36 38 40 40 40 41
24 24 24 26 27 29 30 31 32 33 34 35 35 36 36 36 36 36 37 36 36 35 33 32 32 31 29 28 28 28 28 29 30 31 32 34 36 38 40 42 42 44 46
27 27 28 29 31 32 33 34 35 36 37 37 38 38 39 39 39 39 39 38 37 36 35 33 33 33 32 32 31 32 32 32 33 34 35 38 40 41 43 45 47 49 50
31 30 31 33 34 35 36 37 37 38 39 39 40 40 41 41 42 41 41 40 39 38 37 35 35 35 35 35 36 36 36 37 38 39 41 43 45 46 48 49 51 54 56
34 34 34 36 36 37 37 38 38 39 40 41 42 43 43 44 43 43 43 42 41 40 39 38 38 38 38 39 39 40 41 42 44 45 47 49 51 53 54 55 57 59 61
36 37 37 37 37 37 38 38 39 41 42 43 44 45 45 45 45 44 45 44 43 42 42 42 42 42 43 43 44 45 46 48 49 50 52 53 54 56 58 60 62 64 66
Wind_Direction
257 253 247 240 237 237 238 238 238 241 243 245 249 253 256 257 257 258 258 258 257 257 257 258 259 261 264 267 270 272 270 267 266 268 269 268 269 270 272 274 275 275 276
255 252 247 242 242 242 242 242 242 243 244 248 250 253 256 258 260 260 259 258 258 258 258 258 261 264 267 269 271 272 272 270 268 268 268 269 269 269 270 271 272 273 273
253 250 245 242 243 243 242 241 241 242 244 250 253 255 257 259 260 261 261 260 260 260 260 261 264 267 269 271 273 274 274 274 273 272 273 271 269 270 270 271 271 270 271
249 244 240 237 236 237 238 239 240 245 249 254 258 259 260 261 262 263 264 264 265 264 265 267 269 271 272 274 275 276 277 277 278 278 275 273 272 274 274 273 272 271 271
236 231 226 223 225 230 231 233 239 250 259 263 265 265 265 267 269 271 271 271 271 270 271 273 275 277 278 279 279 280 280 280 281 281 280 275 277 276 275 274 274 274 273
216 210 204 201 204 209 212 221 238 261 275 278 276 275 275 276 278 278 278 278 278 278 279 280 282 282 283 283 284 283 283 283 282 280 278 277 276 277 277 276 275 275 274
202 196 188 182 179 176 174 178 221 287 302 303 301 297 293 290 287 285 286 285 284 283 283 283 284 284 284 284 285 285 285 285 282 280 274 272 279 282 279 277 275 274 274
191 184 174 164 158 149 142 137 123 65 354 335 328 319 314 311 306 300 296 292 288 286 285 285 285 285 285 285 285 285 285 284 282 281 281 279 280 278 277 276 275 273 272
184 175 163 154 147 142 138 126 104 76 34 4 347 336 331 326 321 316 309 302 297 294 292 290 289 287 286 285 285 285 284 283 282 282 282 280 276 275 275 274 274 273 271
184 176 161 148 139 131 120 103 84 65 35 11 358 350 344 337 331 324 317 312 307 302 299 296 293 291 289 286 285 284 282 282 281 283 282 277 277 275 274 273 273 271 269
190 177 168 156 140 127 108 72 36 17 3 358 357 352 347 341 335 329 323 319 315 310 305 300 296 294 291 287 285 283 282 280 279 280 278 274 276 278 276 274 272 270 268
192 184 181 174 164 143 10 359 355 354 352 348 345 343 340 339 337 332 326 321 316 310 305 301 298 294 290 286 284 282 281 280 280 279 279 277 277 277 276 274 273 271 269
205 208 208 227 284 316 332 340 340 344 348 346 342 341 338 336 334 331 326 322 316 312 307 302 299 295 291 288 284 281 280 280 280 280 280 279 279 278 277 277 275 273 272
225 240 256 281 304 317 324 329 335 340 341 339 336 336 335 334 331 331 327 320 316 313 310 306 299 294 290 287 285 282 279 279 281 282 282 280 279 279 279 278 277 275 274
249 264 280 294 306 313 319 323 327 332 332 332 331 330 331 332 331 329 328 323 321 319 314 309 302 295 290 287 284 282 280 278 279 281 279 279 278 277 276 276 276 276 275
259 271 283 293 304 309 313 317 322 323 324 327 328 328 328 329 330 329 328 326 324 320 317 312 308 300 294 290 285 281 278 277 278 280 279 278 278 277 276 276 276 276 276
264 275 284 293 302 308 309 311 316 318 319 321 323 324 325 326 326 327 328 326 326 324 320 316 309 303 296 292 290 286 280 277 277 278 278 277 276 276 277 276 277 278 278
267 276 284 291 298 303 306 308 311 314 315 317 318 321 322 322 324 325 326 326 325 326 324 318 311 305 299 294 292 290 285 281 279 277 276 278 277 274 274 275 277 279 279
265 273 281 288 293 298 301 304 307 310 311 311 313 315 317 318 321 322 323 324 323 324 324 319 317 313 305 297 292 291 287 284 282 279 276 275 276 277 275 275 277 279 280
266 272 279 284 288 292 296 299 301 303 304 306 308 310 312 313 317 318 320 321 321 323 323 322 321 318 313 304 296 292 288 286 284 282 280 277 278 279 281 282 281 280 281
263 271 276 281 286 288 290 292 293 295 297 300 302 304 307 310 314 316 319 319 320 321 320 318 318 318 316 310 305 301 297 293 291 290 287 282 282 283 283 286 286 284 282
263 268 274 278 282 284 284 285 286 289 291 294 297 299 302 306 309 311 312 314 315 316 317 315 314 314 315 313 309 307 304 301 297 295 292 290 289 287 285 285 283 283 283
263 266 271 275 278 280 280 281 282 283 286 288 291 294 297 301 303 305 307 309 309 310 311 311 311 311 311 310 309 306 305 303 299 296 294 293 291 289 288 287 284 282 281
266 268 271 273 275 276 277 278 278 280 282 284 286 289 293 296 298 300 302 304 304 304 306 306 307 306 306 306 305 304 302 300 298 295 293 291 289 288 286 284 283 282 281
266 269 271 273 274 275 275 274 274 276 278 281 283 286 290 293 294 296 298 299 300 301 302 302 302 303 303 302 301 300 299 298 296 295 293 292 291 290 288 285 283 281 280
266 268 270 270 271 272 272 271 272 275 277 279 282 285 288 290 291 293 295 296 297 299 299 299 299 300 300 299 299 298 297 296 295 294 293 291 289 288 287 285 284 282 281
Height
5897 5895 5896 5897 5898 5899 5900 5900 5901 5901 5902 5902 5902 5903 5903 5904 5904 5904 5904 5904 5904 5905 5905 5905 5904 5904 5905 5905 5905 5905 5905 5905 5905 5905 5905 5906 5906 5906 5907 5907 5908 5908 5909
5895 5894 5894 5895 5896 5897 5898 5899 5899 5900 5900 5900 5901 5901 5902 5902 5902 5903 5903 5903 5903 5903 5903 5903 5903 5903 5903 5903 5903 5903 5903 5903 5903 5904 5904 5904 5904 5905 5905 5905 5906 5906 5907
5893 5893 5893 5894 5895 5895 5896 5897 5897 5898 5898 5899 5899 5900 5900 5901 5901 5901 5901 5901 5902 5902 5902 5902 5902 5902 5902 5902 5902 5902 5902 5902 5902 5902 5902 5902 5902 5903 5903 5903 5904 5904 5904
5892 5892 5892 5893 5893 5894 5895 5895 5896 5897 5897 5898 5898 5899 5899 5900 5900 5900 5900 5900 5900 5900 5900 5900 5900 5900 5900 5900 5900 5900 5900 5900 5900 5900 5900 5900 5899 5900 5901 5901 5901 5902 5902
5891 5892 5892 5892 5893 5893 5894 5895 5895 5896 5896 5897 5897 5898 5898 5899 5899 5899 5899 5899 5899 5899 5899 5898 5898 5898 5898 5898 5898 5898 5898 5898 5898 5898 5898 5897 5897 5898 5898 5898 5899 5899 5899
5891 5891 5891 5891 5892 5893 5893 5894 5895 5895 5896 5896 5897 5897 5897 5898 5898 5898 5898 5898 5898 5897 5897 5897 5897 5896 5896 5896 5896 5896 5896 5896 5896 5896 5895 5895 5894 5895 5896 5896 5896 5897 5897
5890 5890 5891 5891 5892 5892 5893 5893 5894 5894 5895 5895 5896 5896 5896 5897 5897 5897 5897 5896 5896 5896 5895 5895 5895 5894 5894 5894 5894 5894 5894 5894 5894 5893 5893 5892 5892 5893 5893 5894 5894 5894 5894
5890 5890 5890 5891 5891 5892 5893 5893 5894 5894 5894 5895 5895 5895 5895 5895 5895 5895 5895 5895 5894 5894 5893 5893 5893 5892 5892 5892 5891 5891 5891 5891 5891 5891 5890 5889 5890 5891 5891 5891 5891 5891 5892
5890 5890 5890 5890 5891 5892 5892 5893 5893 5894 5894 5894 5894 5894 5894 5894 5894 5894 5894 5893 5893 5892 5892 5891 5891 5890 5890 5889 5889 5889 5888 5888 5888 5888 5888 5888 5888 5888 5888 5888 5888 5888 5889
5889 5890 5890 5891 5891 5892 5892 5893 5893 5893 5893 5894 5894 5894 5894 5893 5893 5893 5892 5892 5891 5891 5890 5889 5889 5888 5888 5887 5887 5886 5885 5885 5885 5885 5886 5885 5884 5884 5884 5885 5885 5885 5886
5889 5889 5890 5891 5891 5891 5892 5892 5893 5893 5893 5893 5893 5893 5893 5893 5892 5892 5891 5891 5890 5889 5889 5888 5887 5886 5885 5884 5884 5883 5882 5881 5881 5882 5882 5882 5880 5881 5881 5882 5882 5882 5882
5889 5889 5890 5890 5891 5891 5892 5892 5892 5892 5892 5892 5892 5892 5892 5892 5891 5891 5890 5889 5888 5887 5886 5885 5884 5883 5882 5882 5881 5880 5879 5877 5877 5878 5878 5878 5878 5878 5878 5878 5878 5878 5878
5888 5889 5890 5890 5890 5891 5891 5891 5891 5892 5891 5891 5891 5891 5890 5890 5889 5889 5888 5887 5885 5884 5883 5882 5881 5880 5879 5879 5878 5877 5875 5873 5872 5874 5875 5874 5874 5874 5874 5874 5874 5874 5874
5887 5888 5889 5889 5889 5890 5890 5890 5890 5890 5890 5890 5889 5889 5888 5887 5886 5886 5885 5884 5882 5881 5879 5878 5877 5876 5875 5875 5874 5873 5872 5870 5868 5870 5870 5870 5869 5869 5869 5869 5869 5869 5869
5887 5887 5888 5888 5888 5888 5889 5889 5889 5889 5889 5888 5887 5886 5885 5885 5883 5882 5881 5880 5878 5877 5875 5874 5872 5871 5870 5870 5869 5868 5867 5866 5864 5864 5865 5865 5864 5864 5864 5864 5863 5863 5863
5885 5886 5886 5887 5887 5887 5887 5887 5887 5887 5886 5886 5885 5884 5882 5882 5881 5879 5878 5876 5874 5872 5871 5868 5866 5865 5864 5863 5862 5862 5861 5860 5859 5857 5859 5859 5859 5858 5858 5858 5857 5857 5856
5883 5884 5885 5885 5885 5885 5885 5885 5885 5884 5883 5883 5882 5881 5880 5878 5877 5875 5874 5872 5870 5868 5865 5862 5859 5858 5856 5856 5855 5855 5855 5854 5853 5852 5851 5852 5852 5852 5851 5851 5850 5850 5849
5880 5881 5882 5882 5883 5883 5883 5882 5882 5881 5880 5880 5879 5878 5876 5875 5873 5871 5869 5868 5865 5863 5860 5857 5854 5851 5850 5849 5848 5848 5847 5847 5846 5846 5845 5844 5845 5845 5845 5844 5843 5842 5841
5876 5878 5879 5879 5880 5880 5880 5879 5879 5878 5877 5876 5875 5874 5873 5871 5869 5867 5865 5863 5860 5858 5854 5851 5848 5845 5843 5842 5841 5841 5840 5840 5839 5839 5838 5838 5837 5836 5837 5837 5836 5834 5833
5873 5875 5876 5876 5876 5877 5876 5876 5875 5874 5873 5872 5871 5869 5868 5866 5865 5863 5860 5858 5855 5852 5849 5846 5843 5840 5838 5836 5835 5834 5834 5833 5832 5831 5831 5830 5829 5828 5827 5827 5827 5826 5824
5870 5871 5872 5872 5872 5872 5872 5871 5870 5869 5868 5867 5865 5864 5863 5861 5859 5857 5855 5853 5850 5847 5844 5840 5838 5835 5832 5830 5829 5829 5828 5827 5826 5825 5823 5822 5822 5821 5820 5817 5816 5815 5814
5865 5867 5868 5868 5868 5867 5867 5866 5865 5864 5863 5862 5860 5859 5857 5855 5854 5852 5850 5847 5845 5842 5839 5836 5833 5830 5828 5826 5824 5823 5822 5821 5820 5818 5816 5815 5813 5811 5810 5808 5806 5804 5801
5860 5861 5863 5863 5862 5861 5860 5859 5858 5857 5856 5856 5854 5853 5851 5849 5848 5846 5844 5841 5839 5836 5833 5831 5828 5825 5823 5820 5818 5816 5814 5813 5812 5810 5808 5807 5804 5802 5799 5796 5793 5791 5788
5854 5855 5856 5856 5856 5855 5854 5853 5852 5850 5849 5848 5847 5846 5844 5843 5841 5839 5837 5834 5832 5829 5826 5824 5821 5819 5816 5813 5811 5808 5806 5804 5802 5801 5798 5795 5793 5790 5787 5784 5780 5777 5773
5847 5848 5849 5849 5848 5847 5846 5845 5844 5843 5842 5840 5839 5838 5837 5835 5833 5831 5829 5826 5824 5821 5819 5816 5813 5811 5808 5805 5802 5799 5796 5794 5791 5788 5786 5783 5779 5775 5771 5768 5765 5761 5757
5841 5841 5841 5841 5840 5839 5838 5837 5836 5835 5834 5832 5830 5829 5828 5826 5824 5822 5820 5817 5815 5812 5810 5807 5804 5801 5798 5795 5792 5788 5785 5781 5778 5775 5772 5769 5765 5761 5756 5751 5747 5743 5738